GW5279 Weather Reports


Display with metric or nautical units.
time (UTC)temp
F
wind
direction
speed
MPH
gust
MPH
rain 1hr
in
rain 24hr
in
rain mn
in
humidity
%
barometer
mb
20260504081645 49 203 0.0 0.0 0.00 0.00 0.00 74 1016.6
20260504081141 50 203 0.0 1.0 0.00 0.00 0.00 74 1016.7
20260504080637 50 254 0.0 0.0 0.00 0.00 0.00 69 1016.7
20260504080134 50 255 0.0 0.0 0.00 0.00 0.00 69 1016.7
20260504050450 46 259 0.0 0.0 0.00 0.00 0.00 84 1017.2
20260504045947 46 259 0.0 0.0 0.00 0.00 0.00 84 1017.2
20260504045443 45 259 0.0 0.0 0.00 0.00 0.00 83 1017.1
20260504044939 45 259 0.0 0.0 0.00 0.00 0.00 81 1017.3
20260504044437 45 259 0.0 1.0 0.00 0.00 0.00 80 1017.1
20260504043934 45 258 0.0 0.0 0.00 0.00 0.00 79 1017.1
20260504043431 46 258 0.0 1.0 0.00 0.00 0.00 78 1017.0
20260504042929 46 258 0.0 1.0 0.00 0.00 0.00 80 1017.0
20260504042425 46 260 0.0 0.0 0.00 0.00 0.00 82 1016.9
20260504041921 47 260 0.0 0.0 0.00 0.00 0.00 84 1017.1
20260504041418 47 260 0.0 0.0 0.00 0.00 0.00 82 1017.2
20260504040914 47 260 0.0 0.0 0.00 0.00 0.00 82 1017.1
20260504040412 47 260 0.0 0.0 0.00 0.00 0.00 81 1017.1
20260504035908 47 260 0.0 0.0 0.00 0.00 0.00 79 1017.3
20260504035405 47 260 0.0 0.0 0.00 0.00 0.00 79 1017.3
20260504034901 47 260 0.0 0.0 0.00 0.00 0.00 81 1017.3
20260504034359 47 260 0.0 0.0 0.00 0.00 0.00 82 1017.4
20260504033856 47 260 0.0 0.0 0.00 0.00 0.00 80 1017.2
20260504033354 47 260 0.0 0.0 0.00 0.00 0.00 80 1017.3
20260504032850 47 260 0.0 0.0 0.00 0.00 0.00 81 1017.2
20260504032347 47 260 0.0 0.0 0.00 0.00 0.00 80 1017.4
20260504031844 47 260 0.0 0.0 0.00 0.00 0.00 78 1017.3
20260504031341 46 260 0.0 0.0 0.00 0.00 0.00 81 1017.3
20260504030837 46 260 0.0 0.0 0.00 0.00 0.00 81 1017.3
20260504030335 46 260 0.0 0.0 0.00 0.00 0.00 79 1017.2
20260504025831 46 260 0.0 0.0 0.00 0.00 0.00 80 1017.2
20260504025328 46 260 0.0 0.0 0.00 0.00 0.00 79 1017.4
20260504024825 46 260 0.0 0.0 0.00 0.00 0.00 80 1017.4
20260504024321 46 260 0.0 0.0 0.00 0.00 0.00 78 1017.5
20260504023818 46 260 0.0 0.0 0.00 0.00 0.00 79 1017.4
20260504023315 46 260 0.0 0.0 0.00 0.00 0.00 79 1017.4
20260504022810 46 260 0.0 0.0 0.00 0.00 0.00 80 1017.4
20260504022308 46 260 0.0 0.0 0.00 0.00 0.00 78 1017.4
20260504021804 46 260 0.0 0.0 0.00 0.00 0.00 77 1017.3
20260504021302 46 260 0.0 1.0 0.00 0.00 0.00 75 1017.4
20260504020758 46 260 0.0 1.0 0.00 0.00 0.00 76 1017.3
20260504020255 47 260 0.0 0.0 0.00 0.00 0.00 77 1017.2
20260504015751 47 260 0.0 1.0 0.00 0.00 0.00 75 1017.4
20260504015248 47 260 0.0 1.0 0.00 0.00 0.00 76 1017.3
20260504014743 47 261 0.0 0.0 0.00 0.00 0.00 74 1017.2
20260504014240 48 261 0.0 0.0 0.00 0.00 0.00 74 1017.3
20260504013738 48 261 0.0 0.0 0.00 0.00 0.00 74 1017.4
20260504013235 48 261 0.0 0.0 0.00 0.00 0.00 73 1017.3
20260504012731 48 261 0.0 0.0 0.00 0.00 0.00 72 1017.3
20260504012229 48 261 0.0 0.0 0.00 0.00 0.00 72 1017.3
20260504011726 49 261 0.0 0.0 0.00 0.00 0.00 70 1017.3
20260504011223 49 261 0.0 0.0 0.00 0.00 0.00 68 1017.2
20260504010719 50 261 0.0 0.0 0.00 0.00 0.00 68 1017.3
20260504010215 50 261 0.0 0.0 0.00 0.00 0.00 69 1017.3
20260504005711 50 261 0.0 0.0 0.00 0.00 0.00 68 1017.4
20260504005209 50 261 0.0 0.0 0.00 0.00 0.00 69 1017.3
20260504004706 50 261 0.0 0.0 0.00 0.00 0.00 66 1017.1
20260504004203 51 261 0.0 0.0 0.00 0.00 0.00 61 1017.2
20260504003700 51 261 0.0 0.0 0.00 0.00 0.00 60 1017.1
20260504003157 53 261 0.0 0.0 0.00 0.00 0.00 57 1017.0
20260504002653 55 261 0.0 0.0 0.00 0.00 0.00 50 1016.9
20260504002150 55 261 0.0 0.0 0.00 0.00 0.00 46 1016.9
20260504001649 55 261 0.0 0.0 0.00 0.00 0.00 43 1017.0
20260504001144 55 261 0.0 0.0 0.00 0.00 0.00 43 1017.1
20260504000642 56 261 0.0 0.0 0.00 0.00 0.00 43 1017.0
20260504000139 56 261 0.0 0.0 0.00 0.00 0.00 40 1017.1
20260503235637 56 261 0.0 1.0 0.00 0.00 0.00 39 1017.1
20260503235133 56 238 2.0 3.0 0.00 0.00 0.00 38 1017.1
20260503234631 56 266 1.0 2.0 0.00 0.00 0.00 38 1017.1
20260503234129 56 276 2.0 3.0 0.00 0.00 0.00 38 1017.2
20260503233626 56 260 1.0 2.0 0.00 0.00 0.00 37 1017.1
20260503233121 57 239 1.0 4.0 0.00 0.00 0.00 38 1017.1
20260503232619 57 249 3.0 6.0 0.00 0.00 0.00 36 1017.1
20260503232116 57 270 1.0 1.0 0.00 0.00 0.00 38 1017.2
20260503231614 57 257 0.0 6.0 0.00 0.00 0.00 39 1017.1
20260503231110 58 258 2.0 3.0 0.00 0.00 0.00 36 1017.0
20260503230607 58 283 3.0 6.0 0.00 0.00 0.00 35 1017.1
20260503230104 58 250 4.0 6.0 0.00 0.00 0.00 34 1017.2
20260503225601 59 253 4.0 6.0 0.00 0.00 0.00 34 1017.3
20260503225056 59 265 2.0 7.0 0.00 0.00 0.00 38 1017.4
20260503224554 59 275 2.0 2.0 0.00 0.00 0.00 35 1017.4
20260503224052 59 286 2.0 6.0 0.00 0.00 0.00 35 1017.2
20260503223550 59 219 6.0 10.0 0.00 0.00 0.00 33 1017.3
20260503223045 60 270 5.0 7.0 0.00 0.00 0.00 33 1017.1
20260503222543 60 292 3.0 6.0 0.00 0.00 0.00 34 1017.4
20260503222041 60 280 1.0 4.0 0.00 0.00 0.00 32 1017.5
20260503221539 60 273 2.0 6.0 0.00 0.00 0.00 34 1017.5
20260503221036 61 285 2.0 4.0 0.00 0.00 0.00 32 1017.4
20260503220532 62 267 3.0 4.0 0.00 0.00 0.00 33 1017.2
20260503220029 60 275 1.0 6.0 0.00 0.00 0.00 35 1017.2
20260503215526 62 269 4.0 7.0 0.00 0.00 0.00 31 1017.3
20260503215023 62 326 1.0 4.0 0.00 0.00 0.00 31 1017.3
20260503214522 61 287 1.0 1.0 0.00 0.00 0.00 30 1017.4
20260503214018 61 223 4.0 8.0 0.00 0.00 0.00 33 1017.3
20260503213516 61 188 0.0 2.0 0.00 0.00 0.00 32 1017.2
20260503213013 60 100 1.0 4.0 0.00 0.00 0.00 31 1017.5
20260503212510 61 260 2.0 6.0 0.00 0.00 0.00 35 1017.2
20260503212007 60 281 5.0 7.0 0.00 0.00 0.00 34 1017.3
20260503211504 60 263 4.0 6.0 0.00 0.00 0.00 31 1017.3
20260503211000 60 119 2.0 3.0 0.00 0.00 0.00 31 1017.4
20260503210457 61 279 2.0 6.0 0.00 0.00 0.00 42 1017.5
20260503205957 60 293 4.0 7.0 0.00 0.00 0.00 35 1017.4
20260503205454 60 305 2.0 4.0 0.00 0.00 0.00 33 1017.5
20260503204951 61 251 1.0 6.0 0.00 0.00 0.00 36 1017.5
20260503204448 60 317 1.0 4.0 0.00 0.00 0.00 37 1017.7
20260503203945 60 239 3.0 6.0 0.00 0.00 0.00 35 1017.8
20260503203443 59 292 2.0 3.0 0.00 0.00 0.00 33 1017.9
20260503202939 61 229 6.0 11.0 0.00 0.00 0.00 33 1017.8
20260503202437 61 254 1.0 4.0 0.00 0.00 0.00 35 1017.9
20260503201936 60 274 3.0 4.0 0.00 0.00 0.00 38 1018.0
20260503201432 59 228 4.0 8.0 0.00 0.00 0.00 34 1018.0
20260503200930 62 346 2.0 8.0 0.00 0.00 0.00 33 1018.0
20260503200426 61 288 2.0 3.0 0.00 0.00 0.00 38 1018.1
20260503195923 61 240 0.0 4.0 0.00 0.00 0.00 30 1018.4
20260503195420 61 258 1.0 4.0 0.00 0.00 0.00 32 1018.6
20260503194916 62 236 2.0 4.0 0.00 0.00 0.00 35 1018.5
20260503194413 61 318 1.0 8.0 0.00 0.00 0.00 40 1018.6
20260503193909 60 273 2.0 3.0 0.00 0.00 0.00 42 1018.7
20260503193404 60 298 7.0 9.0 0.00 0.00 0.00 34 1018.7
20260503192900 59 307 1.0 2.0 0.00 0.00 0.00 38 1018.7
20260503192356 59 288 2.0 3.0 0.00 0.00 0.00 36 1019.0
20260503191853 60 289 0.0 3.0 0.00 0.00 0.00 33 1019.2
20260503191350 60 278 1.0 4.0 0.00 0.00 0.00 41 1019.1
20260503190846 59 271 2.0 2.0 0.00 0.00 0.00 36 1019.3
20260503190344 57 284 1.0 3.0 0.00 0.00 0.00 37 1019.3
20260503185841 57 105 1.0 2.0 0.00 0.00 0.00 35 1019.2
20260503185337 58 198 0.0 4.0 0.00 0.00 0.00 34 1019.3
20260503184837 61 262 2.0 7.0 0.00 0.00 0.00 45 1019.2
20260503184333 61 17 3.0 3.0 0.00 0.00 0.00 38 1019.3
20260503183828 59 314 1.0 3.0 0.00 0.00 0.00 40 1019.4
20260503183326 59 281 9.0 10.0 0.00 0.00 0.00 36 1019.5
20260503182823 60 295 1.0 6.0 0.00 0.00 0.00 41 1019.7
20260503182322 59 2 1.0 3.0 0.00 0.00 0.00 39 1019.7
20260503181819 58 224 4.0 7.0 0.00 0.00 0.00 37 1019.7
20260503181316 60 277 2.0 2.0 0.00 0.00 0.00 41 1019.7
20260503180812 57 312 1.0 3.0 0.00 0.00 0.00 42 1019.6
20260503180311 57 286 1.0 4.0 0.00 0.00 0.00 39 1020.1
20260503175806 56 187 4.0 7.0 0.00 0.00 0.00 39 1019.9
20260503175306 56 209 1.0 6.0 0.00 0.00 0.00 37 1019.9
20260503174805 57 282 4.0 11.0 0.00 0.00 0.00 37 1020.1
20260503174304 59 322 2.0 4.0 0.00 0.00 0.00 41 1020.2
20260503173759 57 290 1.0 7.0 0.00 0.00 0.00 43 1020.0
20260503173255 58 288 2.0 3.0 0.00 0.00 0.00 43 1020.1
20260503172752 56 140 6.0 7.0 0.00 0.00 0.00 36 1020.2
20260503172249 56 260 7.0 8.0 0.00 0.00 0.00 37 1020.3
20260503171746 55 274 4.0 7.0 0.00 0.00 0.00 40 1020.3
20260503171243 56 279 2.0 6.0 0.00 0.00 0.00 36 1020.3
20260503170740 55 237 1.0 6.0 0.00 0.00 0.00 37 1020.5
20260503170237 56 311 1.0 2.0 0.00 0.00 0.00 45 1020.6
20260503160159 52 354 2.0 10.0 0.00 0.00 0.00 46 1021.3
20260503150629 52 316 1.0 2.0 0.00 0.00 0.00 51 1021.7
20260503150125 49 312 2.0 3.0 0.00 0.00 0.00 55 1021.7
20260503131019 43 258 2.0 3.0 0.00 0.00 0.00 74 1021.7
20260503130516 43 250 1.0 3.0 0.00 0.00 0.00 75 1021.7
20260503110407 31 213 0.0 0.0 0.00 0.00 0.00 98 1021.0